Погода Нижний Тагил

Погода Нижний Тагил : погода сейчас, прогноз погоды и архив. Всё, что Вы хотите узнать о погоде Нижний Тагил!

Хотите узнать прогноз погоды Нижний Тагил? Тогда Вам сюда: Погода Нижний Тагил

Поиск расширенной информации на нашем сайте:

Другие новости

Новости СМИ2

Главная страница сайта

Новости сайта

03.07.2017

Напоминаем, что на нашем специализированном сайте Метеоцентр.Азия вы можете получить высокодетализированные автоматические прогнозы погоды по пунктам России, СНГ и мира в авиационном формате (включающие направление и скорость ветра, видимость, явления погоды, количество и форму облачности, нижнюю и верхнюю границу облачности).

Рекомендуем: Сравнить цены на лазерная гравировка.

Погода Нижний Тагил - сегодня

Время (UTC), дата Ветер
(°,м/с) 
Видим.   Явления Облачность Т
(°С)
Тd
(°С)
f(%) Тe
(°С)
Pmin
(гПа)
dP
(гПа)
Po
(мм)
O2
(г/м3)
Тmin Tmax R s Состояние
почвы
15 13.01.18 240 (ЮЗ) 20000 м    ясно 
-22 -23.8 85 -27  1028.9  -0.9  745  328    -20.7       
18 13.01.18 250 (З) 20000 м    ясно 
-20.7 -22.7 84 -26  1027.6  -1.1  744  326           
21 13.01.18 260 (З) 5{11}  20000 м  позёмок  10/0 средняя 
[As trans]
-20.7 -22.6 85 -27  1027.1  -0.4  744  326           
00 14.01.18 250 (З) 4000 м  слаб. снег  10/0 средняя 
[As trans]
-20.4 -22.7 82 -26  1026.1  -1  743  325           
03 14.01.18 270 (З) 20000 м  {снег}  10/0 средняя 
[As trans]
-18.5 -21.2 79 -25  1025.7  -0.1  743  323  -21.9    0.0  равномерный
сухой снег
100% 
06 14.01.18 270 (З) 4000 м  слаб. снег  10/0 средняя 
[As op]
-17.3 -19.6 82 -22  1027  1.4  744  322           
09 14.01.18 260 (З) 10 км  слаб. снег  10/0 средняя 
[As op]
-16.3 -19.2 78 -21  1028.2  1.2  745  321           
12 14.01.18 270 (З) 20000 м  {снег}  6/0 средняя, верхняя 
[As op|Ci sp]
-16.1 -18.5 82 -18  1029.6  1.4  746  321           
15 14.01.18 250 (З) 20000 м    ясно 
-17.5 -19.1 87 -20  1030.1  0.2  746  323    -15.5  0.2     
18 14.01.18 240 (ЮЗ) 20000 м    ясно 
-18 -19.8 86 -22  1030  0.1  746  323           
21 14.01.18 240 (ЮЗ) 20000 м    ясно 
-18 -19.1 91 -21  1029.7  -0.3  746  323           
00 15.01.18 240 (ЮЗ) 20000 м    ясно 
-14.8 -15.8 92 -17  1028  -1.2  745  319           
03 15.01.18 260 (З) 20000 м    ясно 
-11.8 -12.6 94 -14  1028.2  0.5  745  315  -18.3      равномерный
сухой снег
100% 
06 15.01.18 270 (З) 20000 м    10/6 600 м средняя 
[Sc|As op]
-9.1 -10.1 92 -13  1028.3  0.5  746  312           
09 15.01.18 260 (З) 20000 м    8/8 600 м 
[Sc]
-6.6 -8.5 86 -10  1027.6  -0.3  746  309           
12 15.01.18 270 (З) 20000 м    8/5 600 м средняя 
[Sc|Ac trans]
-7.7 -8.7 93 -10  1027.9  0.1  746  310           
15 15.01.18 260 (З) 20000 м    4/0 средняя 
[Ac lent]
-8.8 -9.2 97 -10  1027.9  -0.2  746  311    -6.3       
18 15.01.18 270 (З) 20000 м    6/6 600 м 
[Sc]
-7.4 -8.1 95 -10  1027.3  -0.4  745  309           
21 15.01.18 270 (З) 20000 м    9/4 600 м средняя 
[Sc|As op]
-7.6 -8.6 93 -11  1026.9  -0.4  745  310           
00 16.01.18 260 (З) 20000 м    10/5 600 м средняя 
[Sc|As op]
-8.5 -9.4 93 -11  1026.8  -0.3  745  311           
03 16.01.18 260 (З) 20000 м    6/6 600 м 
[Sc]
-9.6 -10.3 95 -11  1026  -0.9  744  312  -9.8      равномерный
сухой снег
100% 
06 16.01.18 230 (ЮЗ) 20000 м    4/0 верхняя 
[Cs]
-8.5 -9.7 91 -8  1026.5  0.5  745  311  -10         
09 16.01.18 270 (З) 20000 м    4/0 верхняя 
[Cs]
-5.5 -8.5 79 -8  1026.2  -0.1  745  307           
12 16.01.18 270 (З) 20000 м    5/3 600 м верхняя 
[Sc|Cs]
-8 -9.3 90 -11  1026.5  745  310           
15 16.01.18 250 (З) 20000 м    3/0 верхняя 
[Ci fib]
-11.5 -12.1 95 -11  1026.9  0.1  745  314    -5.5       
Время (UTC), дата Ветер
(°,м/с) 
Видим.   Явления Облачность Т
(°С)
Тd
(°С)
f(%) Тe
(°С)
Pmin
(гПа)
dP
(гПа)
Po
(мм)
O2
(г/м3)
Тmin Tmax R s Состояние
почвы

Для получения пояснительной информации подведите курсор к названию столбца.

ПОГОДА Нижний Тагил - архив

Всё, что Вы хотите узнать о погоде Нижний Тагил - удобно и подробно!

Выберите нужную дату (начиная с 1 января 2015* года) и нажмите кнопку "Найти".
Будут отображены архивные сводки погоды по пункту Нижний Тагил, начиная с указанной даты.


Отображать данные в формате CSV (для использования в таблицах Excel)


Внимание! Наш архив погоды предназначен исключительно для личного некоммерческого использования в познавательных целях. Если Вам необходимы официальные справки о состоянии погоды (для производственных, юридических, коммерческих и т.п. целей), обращайтесь в органы Росгидромета.

*Примечание: данная дата относится к архиву по метеостанциям СССР (Россия, СНГ, Балтия).
Архив по метеостанциям Зарубежной Европы и Азии (кроме Китая) хранится 10 дней, по другим регионам земного шара (Китай, Африка, Америка, Австралия, Океания) - 1 день.

Нижний Тагил - район местоположения метеостанции


Название, широта, долгота, высота метеостанции:
Нижний Тагил 57.9°ш. 60.1°д. 260 м над ур. моря [Российская Федерация]

Дополнительная информация

В oтличие oт бoльшинства пoгoдных сайтoв мы публикуем пoдрoбную метеoинфoрмацию в детальнoм прoфессиoнальнoм фoрмате.

Характеристики температуры и влажнoсти вoздуха измеряются на высoте 2 м в тени вдали oт зданий и деревьев.
Скoрoсть ветра измеряется на высoте 10 м (на урoвне рoста челoвека скoрoсть ветра ниже в 1.5-2 раза). Если метеoстанция нахoдится в гoрoде или в лесу, тo скoрoсть ветра занижена на 2-4 м/с пo сравнению с oткрытым местoм. Скoрoсть ветра над акватoриями крупных рек и oзёр, а также на вершинах хoлмoв на 2-5 м/с выше, чем в oбычных услoвиях.
Атмoсфернoе давление в разных тoчках местнoсти мoжет значительнo oтличаться oт давления на метеoстанции, в зависимoсти oт услoвий рельефа (при пoдъёме на 10 м давление пoнижается примернo на 1 мм рт.ст.).